Regional Weather Roundup
Issued by NWS Midland/Odessa, TX

Skip options and go directly to product.
Home | Oldest Version | Previous Version | Current Version | All | Text Only | Save Text | Print | Product List | Glossary On

Skip product version selection by date and time.   
745
ASUS44 KMAF 061510
RWRMAF
MIDLAND AREA WEATHER ROUNDUP
NATIONAL WEATHER SERVICE MIDLAND TX
1000 AM CDT FRI MAY 06 2016

...IN SOUTHWEST TEXAS AND SOUTHEAST NEW MEXICO...

CITY           SKY/WX    TMP DP  RH WIND       PRES   REMARKS
ALPINE         SUNNY     74  35  24 S13       30.15S
ANDREWS        FAIR      72  40  31 S21G28    30.07S
ARTESIA        SUNNY     70  36  28 SE22      30.01S
BIG SPRING     SUNNY     74  44  33 S22G30    30.09S
CARLSBAD       SUNNY     71  35  26 SE17G24   29.99F
DRYDEN           N/A     78  45  30 E15G21    30.04S
FORT STOCKTON  SUNNY     78  38  23 S20G29    30.02S
GUAD PASS      SUNNY     72  32  23 CALM      30.10F
HOBBS          SUNNY     72  37  28 SE20G28   30.06F
MARFA          SUNNY     74  36  25 SE17      30.13S
MIDLAND AIRPK  SUNNY     74  41  30 S21G28    30.07F
MIDLAND INTL   SUNNY     76  42  29 S26G36    30.06S
ODESSA         SUNNY     75  40  28 S22G31    30.07S
PECOS          SUNNY     78  37  22 SE16      29.99S
PRESIDIO       FAIR      81  36  20 MISG      29.99F
SEMINOLE       SUNNY     71  39  31 S17       30.08F
SNYDER           N/A     71  47  42 S14G20    30.11R
WINK           SUNNY     75  39  27 SE24      30.00F
$$
...OTHER STATIONS IN TEXAS...

CITY           SKY/WX    TMP DP  RH WIND       PRES   REMARKS
ABILENE        SUNNY     72  54  53 S12       30.11R
AMARILLO       SUNNY     68  42  38 S20       30.10S
AUSTIN         MOSUNNY   73  55  53 SE3       30.11R
BROWNSVILLE    SUNNY     80  62  54 SW10      30.06R
CORPUS CHRISTI MOSUNNY   81  58  45 NE6       30.06S
DALLAS FTW     PTSUNNY   75  49  39 SE6       30.11R
DEL RIO        SUNNY     75  53  46 SE9       30.05R
EL PASO        SUNNY     74  30  19 VRB7      29.97S
HOUSTON INT    MOSUNNY   74  51  44 SE3       30.09R
LUBBOCK        MOSUNNY   71  40  32 S22G29    30.09S
SAN ANGELO     SUNNY     73  51  46 S12       30.09S
SAN ANTONIO    MOSUNNY   73  50  44 SE10      30.12R
WACO           SUNNY     72  50  45 VRB3      30.11S
WICHITA FALLS  NOT AVBL
$$
...OTHER LOCATIONS IN NEW MEXICO...

CITY           SKY/WX    TMP DP  RH WIND       PRES   REMARKS
ALAMAGORDO     SUNNY     79  30  17 S24       29.96F
ALBUQUERQUE    SUNNY     73  28  18 S18       30.00F
CANNON AFB     SUNNY     72  35  26 S21       30.08F
CLOVIS         SUNNY     70  39  32 S18G24    30.10F
HOLLOMAN AFB   SUNNY     78  30  17 S23G30    29.94F
ROSWELL        SUNNY     69  32  25 S14       30.02S
RUIDOSO          N/A     64  27  24 SE15      30.14F
SANTA FE       SUNNY     67  25  20 SE20      30.08F
TRUTH OR CONSE SUNNY     70  22  16 S13       29.96F
TUCUMCARI      CLOUDY    69  32  25 W12       30.07S
$$

USA.gov is the U.S. government's official web portal to all federal, state and local government web resources and services.